FW2365 Weather Reports


Display with metric or nautical units.
time (UTC)temp
F
wind
direction
speed
MPH
gust
MPH
rain 1hr
in
rain 24hr
in
rain mn
in
humidity
%
barometer
mb
20260503055037 52 145 0.0 2.0 0.00 0.00 0.00 63 1021.0
20260503054543 52 145 0.0 2.0 0.00 0.00 0.00 63 1021.0
20260503054036 51 145 0.0 2.0 0.00 0.00 0.00 64 1020.9
20260503053534 51 145 0.0 2.0 0.00 0.00 0.00 65 1021.0
20260503053038 51 145 0.0 2.0 0.00 0.00 0.00 64 1021.1
20260503052533 50 145 0.0 3.0 0.00 0.00 0.00 67 1021.1
20260503052034 50 145 0.0 3.0 0.00 0.00 0.00 65 1021.1
20260503051533 50 145 1.0 3.0 0.00 0.00 0.00 65 1021.1
20260503051032 50 145 0.0 3.0 0.00 0.00 0.00 66 1021.2
20260503050532 50 145 0.0 2.0 0.00 0.00 0.00 66 1021.3
20260503050030 50 145 0.0 2.0 0.00 0.00 0.00 68 1021.3
20260503045529 50 145 0.0 2.0 0.00 0.00 0.00 68 1021.3
20260503045027 49 145 0.0 2.0 0.00 0.00 0.00 68 1021.3
20260503044542 48 145 1.0 2.0 0.00 0.00 0.00 66 1021.3
20260503044028 48 145 0.0 2.0 0.00 0.00 0.00 68 1021.3
20260503043524 47 145 0.0 2.0 0.00 0.00 0.00 69 1021.3
20260503043038 47 309 0.0 2.0 0.00 0.00 0.00 69 1021.3
20260503042522 47 309 0.0 2.0 0.00 0.00 0.00 69 1021.3
20260503042021 47 309 0.0 2.0 0.00 0.00 0.00 69 1021.2
20260503041520 47 309 0.0 2.0 0.00 0.00 0.00 68 1021.2
20260503041018 48 309 0.0 3.0 0.00 0.00 0.00 67 1021.2
20260503040518 48 309 1.0 3.0 0.00 0.00 0.00 66 1021.2
20260503040017 48 309 2.0 4.0 0.00 0.00 0.00 66 1021.2
20260503035517 48 309 1.0 4.0 0.00 0.00 0.00 66 1021.2
20260503035017 48 309 2.0 3.0 0.00 0.00 0.00 66 1021.2
20260503034516 48 309 1.0 3.0 0.00 0.00 0.00 66 1021.2
20260503034015 48 309 1.0 2.0 0.00 0.00 0.00 66 1021.2
20260503033519 48 309 0.0 2.0 0.00 0.00 0.00 66 1021.2
20260503033016 48 309 1.0 2.0 0.00 0.00 0.00 66 1021.2
20260503032515 48 145 1.0 2.0 0.00 0.00 0.00 66 1021.2
20260503032018 48 145 0.0 2.0 0.00 0.00 0.00 66 1021.2
20260503031521 48 309 0.0 2.0 0.00 0.00 0.00 66 1021.2
20260503031014 48 309 1.0 1.0 0.00 0.00 0.00 66 1021.2
20260503030512 49 309 0.0 2.0 0.00 0.00 0.00 66 1021.2
20260503030015 49 309 0.0 2.0 0.00 0.00 0.00 65 1021.2
20260503025512 49 309 0.0 2.0 0.00 0.00 0.00 66 1021.2
20260503025012 49 309 0.0 2.0 0.00 0.00 0.00 66 1021.1
20260503024511 49 309 1.0 2.0 0.00 0.00 0.00 65 1021.1
20260503024016 49 309 0.0 1.0 0.00 0.00 0.00 65 1021.1
20260503023509 49 309 0.0 2.0 0.00 0.00 0.00 65 1021.2
20260503023011 49 309 0.0 2.0 0.00 0.00 0.00 65 1021.2
20260503022511 49 309 1.0 2.0 0.00 0.00 0.00 65 1021.2
20260503022108 49 309 1.0 2.0 0.00 0.00 0.00 64 1021.2
20260503021508 50 309 1.0 2.0 0.00 0.00 0.00 63 1021.3
20260503021008 50 309 0.0 2.0 0.00 0.00 0.00 63 1021.3
20260503020511 50 309 1.0 3.0 0.00 0.00 0.00 63 1021.2
20260503020008 50 309 2.0 3.0 0.00 0.00 0.00 63 1021.3
20260503015507 50 309 1.0 3.0 0.00 0.00 0.00 64 1021.2
20260503015007 49 309 2.0 3.0 0.00 0.00 0.00 64 1021.2
20260503014505 49 309 1.0 2.0 0.00 0.00 0.00 65 1021.2
20260503014004 50 309 0.0 2.0 0.00 0.00 0.00 65 1021.2
20260503013503 50 309 0.0 1.0 0.00 0.00 0.00 64 1021.2
20260503013002 50 309 0.0 2.0 0.00 0.00 0.00 63 1021.4
20260503012502 50 309 0.0 2.0 0.00 0.00 0.00 64 1021.4
20260503012100 50 145 0.0 3.0 0.00 0.00 0.00 63 1021.4
20260503011625 51 145 1.0 3.0 0.00 0.00 0.00 62 1021.4
20260503011058 51 145 2.0 3.0 0.00 0.00 0.00 61 1021.4
20260503010558 51 145 2.0 3.0 0.00 0.00 0.00 61 1021.4
20260503010059 51 145 1.0 2.0 0.00 0.00 0.00 61 1021.4
20260503005602 51 145 0.0 2.0 0.00 0.00 0.00 61 1021.5
20260503005058 51 145 1.0 2.0 0.00 0.00 0.00 61 1021.4
20260503004557 51 145 0.0 2.0 0.00 0.00 0.00 62 1021.5
20260503004056 51 145 1.0 2.0 0.00 0.00 0.00 62 1021.5
20260503003556 51 145 1.0 2.0 0.00 0.00 0.00 62 1021.5
20260503003056 51 145 0.0 2.0 0.00 0.00 0.00 62 1021.5
20260503002555 51 145 0.0 2.0 0.00 0.00 0.00 62 1021.6
20260503002054 51 145 0.0 2.0 0.00 0.00 0.00 62 1021.6
20260503001554 51 145 1.0 2.0 0.00 0.00 0.00 62 1021.7
20260503001052 52 145 0.0 2.0 0.00 0.00 0.00 61 1021.7
20260503000552 52 145 0.0 1.0 0.00 0.00 0.00 60 1021.7
20260502235550 53 145 0.0 3.0 0.00 0.00 0.00 58 1021.9
20260502235050 53 145 1.0 2.0 0.00 0.00 0.00 58 1021.9
20260502234600 53 145 1.0 2.0 0.00 0.00 0.00 58 1021.9
20260502234049 53 145 0.0 2.0 0.00 0.00 0.00 58 1021.9
20260502233548 53 145 0.0 3.0 0.00 0.00 0.00 58 1022.0
20260502233047 53 145 1.0 2.0 0.00 0.00 0.00 58 1022.0
20260502232546 53 145 0.0 2.0 0.00 0.00 0.00 58 1022.1
20260502232051 53 145 0.0 2.0 0.00 0.00 0.00 58 1022.2
20260502231546 53 145 0.0 2.0 0.00 0.00 0.00 58 1022.2
20260502231047 54 145 0.0 2.0 0.00 0.00 0.00 57 1022.2
20260502230545 54 145 0.0 2.0 0.00 0.00 0.00 56 1022.2
20260502230046 54 145 1.0 2.0 0.00 0.00 0.00 56 1022.3
20260502225543 54 145 2.0 2.0 0.00 0.00 0.00 56 1022.3
20260502225043 54 145 1.0 2.0 0.00 0.00 0.00 56 1022.2
20260502224542 54 145 0.0 3.0 0.00 0.00 0.00 57 1022.2
20260502224045 54 145 0.0 3.0 0.00 0.00 0.00 57 1022.2
20260502223542 54 145 2.0 3.0 0.00 0.00 0.00 57 1022.2
20260502223042 54 145 0.0 2.0 0.00 0.00 0.00 57 1022.2
20260502222540 54 145 0.0 2.0 0.00 0.00 0.00 57 1022.2
20260502222038 54 145 0.0 2.0 0.00 0.00 0.00 56 1022.2
20260502221539 55 145 0.0 2.0 0.00 0.00 0.00 56 1022.2
20260502221037 55 145 0.0 2.0 0.00 0.00 0.00 55 1022.2
20260502220536 55 145 0.0 2.0 0.00 0.00 0.00 54 1022.2
20260502220042 55 145 0.0 2.0 0.00 0.00 0.00 54 1022.1
20260502215536 56 145 1.0 2.0 0.00 0.00 0.00 54 1022.2
20260502215035 56 145 0.0 2.0 0.00 0.00 0.00 53 1022.1
20260502214634 56 145 0.0 2.0 0.00 0.00 0.00 52 1022.1
20260502214034 56 145 1.0 2.0 0.00 0.00 0.00 53 1022.1
20260502213536 56 145 1.0 2.0 0.00 0.00 0.00 53 1022.1
20260502213040 56 145 0.0 2.0 0.00 0.00 0.00 53 1022.1
20260502212534 57 145 0.0 2.0 0.00 0.00 0.00 53 1022.1
20260502212034 56 145 0.0 2.0 0.00 0.00 0.00 52 1022.1
20260502211537 56 145 0.0 2.0 0.00 0.00 0.00 52 1022.1
20260502211035 57 145 0.0 0.0 0.00 0.00 0.00 53 1022.2
20260502210537 57 145 0.0 2.0 0.00 0.00 0.00 51 1022.2
20260502210034 58 145 0.0 3.0 0.00 0.00 0.00 51 1022.2
20260502205535 58 145 0.0 4.0 0.00 0.00 0.00 50 1022.3
20260502205033 58 145 1.0 4.0 0.00 0.00 0.00 50 1022.4
20260502204536 58 191 2.0 3.0 0.00 0.00 0.00 50 1022.4
20260502204032 58 191 2.0 3.0 0.00 0.00 0.00 50 1022.4
20260502203532 58 191 1.0 2.0 0.00 0.00 0.00 49 1022.2
20260502203032 58 191 1.0 2.0 0.00 0.00 0.00 49 1022.2
20260502202533 58 191 0.0 2.0 0.00 0.00 0.00 50 1022.2
20260502202031 59 191 0.0 2.0 0.00 0.00 0.00 50 1022.2
20260502201537 59 191 0.0 2.0 0.00 0.00 0.00 49 1022.2
20260502201032 60 191 0.0 2.0 0.00 0.00 0.00 48 1022.2
20260502200532 60 191 1.0 2.0 0.00 0.00 0.00 47 1022.2
20260502200032 60 191 1.0 2.0 0.00 0.00 0.00 47 1022.2
20260502195532 61 191 0.0 2.0 0.00 0.00 0.00 46 1022.2
20260502195031 61 191 0.0 2.0 0.00 0.00 0.00 45 1022.1
20260502194533 61 191 1.0 2.0 0.00 0.00 0.00 45 1022.1
20260502194031 61 191 1.0 2.0 0.00 0.00 0.00 44 1022.0
20260502193531 62 191 0.0 3.0 0.00 0.00 0.00 44 1022.0
20260502193033 62 191 2.0 3.0 0.00 0.00 0.00 43 1021.9
20260502192530 62 191 0.0 2.0 0.00 0.00 0.00 41 1021.9
20260502192030 63 191 0.0 2.0 0.00 0.00 0.00 42 1021.9
20260502191531 63 191 0.0 2.0 0.00 0.00 0.00 41 1021.8
20260502191031 63 191 1.0 2.0 0.00 0.00 0.00 39 1021.8
20260502190529 64 191 0.0 3.0 0.00 0.00 0.00 39 1021.6
20260502190040 64 191 0.0 3.0 0.00 0.00 0.00 39 1021.6
20260502185529 65 239 1.0 2.0 0.00 0.00 0.00 38 1021.6
20260502185029 65 239 0.0 2.0 0.00 0.00 0.00 36 1021.6
20260502184528 66 239 0.0 2.0 0.00 0.00 0.00 36 1021.5
20260502184029 66 239 0.0 3.0 0.00 0.00 0.00 36 1021.5
20260502183529 66 239 1.0 3.0 0.00 0.00 0.00 35 1021.4
20260502183028 67 282 0.0 4.0 0.00 0.00 0.00 35 1021.4
20260502182528 67 282 0.0 4.0 0.00 0.00 0.00 33 1021.3
20260502182030 67 274 1.0 6.0 0.00 0.00 0.00 33 1021.3
20260502181533 67 278 2.0 6.0 0.00 0.00 0.00 33 1021.2
20260502181027 67 304 2.0 8.0 0.00 0.00 0.00 33 1021.2
20260502180528 67 151 3.0 8.0 0.00 0.00 0.00 33 1021.2
20260502164022 70 278 6.0 11.0 0.00 0.00 0.00 33 1021.3
20260502163522 70 280 6.0 13.0 0.00 0.00 0.00 33 1021.3
20260502163023 70 281 3.0 13.0 0.00 0.00 0.00 33 1021.2
20260502162522 70 304 6.0 11.0 0.00 0.00 0.00 33 1021.3
20260502162023 70 274 4.0 11.0 0.00 0.00 0.00 33 1021.4
20260502161521 70 272 3.0 10.0 0.00 0.00 0.00 33 1021.5
20260502161021 70 274 4.0 11.0 0.00 0.00 0.00 33 1021.5
20260502160523 70 304 3.0 12.0 0.00 0.00 0.00 33 1021.5
20260502152014 72 230 4.0 10.0 0.00 0.00 0.00 31 1022.1
20260502151537 72 309 4.0 10.0 0.00 0.00 0.00 30 1022.2
20260502151015 72 277 4.0 9.0 0.00 0.00 0.00 30 1022.2
20260502150514 72 304 4.0 9.0 0.00 0.00 0.00 30 1022.3
20260502130558 74 266 2.0 10.0 0.00 0.00 0.00 20 1024.1
20260502130106 74 309 6.0 9.0 0.00 0.00 0.00 21 1024.2
20260502123554 74 324 3.0 9.0 0.00 0.00 0.00 20 1024.5
20260502123054 74 314 2.0 8.0 0.00 0.00 0.00 19 1024.6
20260502122553 73 279 2.0 8.0 0.00 0.00 0.00 19 1024.7
20260502122052 73 304 3.0 8.0 0.00 0.00 0.00 23 1024.8
20260502121651 73 258 2.0 11.0 0.00 0.00 0.00 21 1024.8
20260502121050 73 280 7.0 11.0 0.00 0.00 0.00 22 1024.8
20260502120550 73 335 1.0 9.0 0.00 0.00 0.00 21 1025.0
20260502115548 72 300 4.0 9.0 0.00 0.00 0.00 22 1025.1
20260502115048 72 286 3.0 6.0 0.00 0.00 0.00 24 1025.2
20260502114545 72 299 4.0 10.0 0.00 0.00 0.00 31 1025.3
20260502114044 71 264 8.0 10.0 0.00 0.00 0.00 27 1025.3
20260502113544 72 314 4.0 9.0 0.00 0.00 0.00 28 1025.4
20260502113050 71 314 2.0 8.0 0.00 0.00 0.00 30 1025.6
20260502112541 71 278 4.0 9.0 0.00 0.00 0.00 30 1025.6
20260502112041 71 309 3.0 10.0 0.00 0.00 0.00 31 1025.7
20260502111546 71 304 5.0 10.0 0.00 0.00 0.00 32 1025.7
20260502111039 70 309 5.0 10.0 0.00 0.00 0.00 29 1025.8
20260502110538 70 296 4.0 10.0 0.00 0.00 0.00 33 1025.8
20260502110038 70 309 6.0 9.0 0.00 0.00 0.00 32 1026.0
20260502105537 70 326 5.0 9.0 0.00 0.00 0.00 33 1026.0
20260502105038 70 304 5.0 9.0 0.00 0.00 0.00 32 1026.0
20260502104533 69 288 3.0 6.0 0.00 0.00 0.00 35 1026.1
20260502104032 69 279 3.0 6.0 0.00 0.00 0.00 37 1026.2
20260502103532 69 314 3.0 6.0 0.00 0.00 0.00 35 1026.2
20260502103030 68 297 2.0 6.0 0.00 0.00 0.00 36 1026.3
20260502102530 68 293 3.0 6.0 0.00 0.00 0.00 37 1026.4
20260502102029 68 280 2.0 6.0 0.00 0.00 0.00 37 1026.5
20260502101528 67 304 4.0 8.0 0.00 0.00 0.00 37 1026.6
20260502101027 67 314 2.0 8.0 0.00 0.00 0.00 37 1026.6
20260502100526 67 324 4.0 8.0 0.00 0.00 0.00 37 1026.6
20260502091512 63 295 4.0 6.0 0.00 0.00 0.00 43 1027.5
20260502091011 63 314 4.0 6.0 0.00 0.00 0.00 44 1027.5
20260502090515 63 297 3.0 6.0 0.00 0.00 0.00 43 1027.5
20260502071042 55 161 0.0 2.0 0.00 0.00 0.00 57 1028.9
20260502070536 55 161 0.0 0.0 0.00 0.00 0.00 56 1029.0
20260502070045 54 161 0.0 0.0 0.00 0.00 0.00 58 1029.1
20260502065533 54 161 0.0 1.0 0.00 0.00 0.00 58 1029.1
20260502065033 53 161 0.0 1.0 0.00 0.00 0.00 60 1029.1
20260502064530 53 161 0.0 0.0 0.00 0.00 0.00 64 1029.2
20260502064029 53 161 0.0 0.0 0.00 0.00 0.00 62 1029.2
20260502063528 52 161 0.0 0.0 0.00 0.00 0.00 63 1029.2
20260502063035 52 161 0.0 0.0 0.00 0.00 0.00 60 1029.2
20260502062525 52 161 0.0 0.0 0.00 0.00 0.00 61 1029.3
20260502062025 51 161 0.0 0.0 0.00 0.00 0.00 61 1029.3
20260502061523 51 161 0.0 0.0 0.00 0.00 0.00 63 1029.4
20260502061023 50 161 0.0 2.0 0.00 0.00 0.00 65 1029.4
20260502060519 50 161 0.0 2.0 0.00 0.00 0.00 62 1029.4
20260502060018 50 161 0.0 0.0 0.00 0.00 0.00 64 1029.4